sat.trackr.live / text

‹ back to catalog

STARLINK-4662

NORAD 53738 · 2022-107AQ

PAYLOAD ACTIVE UNKNOWN

§ Identity

Operator
Country
US
Launch date
2022-09-05
Launch site
AFETR
Launch vehicle
Mass (kg)
RCS (m²)

Purposes: comms

External: N2YO · Heavens-Above · Gunter

§ Orbital elements

Epoch: 2026-05-25T02:39:57.203136Z

Period
95.44 min
Inclination
53.2138°
Eccentricity
0.0001107
Mean motion
15.08839759 rev/d
Perigee alt
539.0 km
Apogee alt
540.5 km
Semi-major
6,917.9 km
B*
5.3282e-5
RAAN
280.8261°
Arg perigee
86.2933°
Mean anomaly
273.8186°
Rev number
20,598

§ Raw data

STARLINK-46621 53738U 22107AQ  26145.11107874  .00000560  00000+0  53282-4 0  99992 53738  53.2138 280.8261 0001107  86.2933 273.8186 15.08839759205981

JSON: /api/v1/satellites/53738 · /tle

For live sub-satellite position, see the globe view (requires WebGL).

§ Visibility from observer

Set your observer location to see the next 7 days of passes ≥ 10°. The values pass through the URL so the page stays shareable.

No JS? Fill the form by hand. The geolocation button needs JavaScript.